Location: Spruce Knob
(38.6995°N, 79.5330°W)
Time: 22:45:27
(UTC-04:00)

A-11 Canister half - Pass Details

Date: 29 January 2022
Orbit: 1513 x 1686 km, 47.2° (Epoch: 24 May)

Event Time Altitude Azimuth Distance (km) Brightness Sun altitude
Rises 20:47:57 0° 297° (WNW) 4,698 12.4 -37.4°
Reaches altitude 10° 20:51:03 10° 300° (WNW) 3,699 11.6 -38.0°
Enters shadow 20:58:50 63° 332° (NNW) 1,668 9.1 -39.5°
Maximum altitude 21:00:21 73° 25° (NNE) 1,574 - -39.8°
Drops below altitude 10° 21:09:34 10° 110° (ESE) 3,675 - -41.6°
Sets 21:12:38 0° 112° (ESE) 4,666 - -42.2°
